Marysville, MI

3:49 PM EST on December 06, 2016 (GMT -0500)
Saint Clair County International

Weather History for KPHN - January, 2012

Change the Weather History Date:

Monday, January 16, 2012

  Actual Average (KMTC) Record (KMTC)
Temperature  
Mean Temperature 30 °F -  
Max Temperature 39 °F 29 °F 54 °F (1949)
Min Temperature 21 °F 15 °F -6 °F (1982)
Degree Days  
Heating Degree Days 35    
Moisture  
Dew Point 24 °F    
Average Humidity 76    
Maximum Humidity 87    
Minimum Humidity 65    
Precipitation  
Precipitation 0.00 in - - ()
Sea Level Pressure  
Sea Level Pressure 30.02 in    
Wind  
Wind Speed 10 mph (South)    
Max Wind Speed 15 mph    
Max Gust Speed 21 mph    
Visibility 10 miles    
Events Rain    
Averages and records for this station are not official NWS values.
T = Trace of Precipitation, MM = Missing Value Source: NWS Daily Summary

Daily Weather History Graph

Daily Weather History Graph

Search for Another Location

Airport or City:

Trip Planner

Search our weather history database for the weather conditions in past years. The results will help you decide how hot, cold, wet, or windy it might be!

Date:

Astronomy

Jan. 16, 2012 Rise Set
Actual Time 7:58 AM EST 5:21 PM EST
Civil Twilight 7:26 AM EST 5:53 PM EST
Nautical Twilight 6:51 AM EST 6:28 PM EST
Astronomical Twilight 6:17 AM EST 7:02 PM EST
Moon 1:02 AM EST (1/16) 11:37 AM EST (1/16)
Length of Visible Light 10h 26m
Length of Day
9h 23m
Waning Gibbous, 46% of the Moon is Illuminated
Jan 16
Waning Gibbous
Jan 23
New
Jan 30
First Quarter
Feb 7
Full
Feb 14
Last Quarter

Hourly Weather History & Observations

Time (EST) Temp. Windchill Dew Point Humidity Pressure Visibility Wind Dir Wind Speed Gust Speed Precip Events Conditions
12:18 AM 21.2 °F 10.9 °F 17.6 °F 86% 30.32 in 10.0 mi South 9.2 mph - N/A   Clear
12:38 AM 23.0 °F 14.7 °F 15.8 °F 74% 30.31 in 10.0 mi SSE 6.9 mph - N/A   Clear
12:58 AM 21.2 °F 11.7 °F 15.8 °F 80% 30.30 in 10.0 mi SSE 8.1 mph - N/A   Clear
1:18 AM 21.2 °F 12.6 °F 15.8 °F 80% 30.29 in 10.0 mi SSE 6.9 mph - N/A   Clear
1:38 AM 21.2 °F 10.9 °F 15.8 °F 80% 30.27 in 10.0 mi SSE 9.2 mph - N/A   Scattered Clouds
1:58 AM 23.0 °F 13.9 °F 15.8 °F 74% 30.26 in 10.0 mi SSE 8.1 mph 16.1 mph N/A   Overcast
2:18 AM 23.0 °F 11.7 °F 17.6 °F 80% 30.25 in 10.0 mi South 11.5 mph 17.3 mph N/A   Overcast
2:38 AM 23.0 °F 11.7 °F 17.6 °F 80% 30.24 in 10.0 mi SSE 11.5 mph - N/A   Mostly Cloudy
2:58 AM 23.0 °F 11.7 °F 17.6 °F 80% 30.24 in 10.0 mi South 11.5 mph 17.3 mph N/A   Mostly Cloudy
3:18 AM 24.8 °F 14.6 °F 17.6 °F 74% 30.22 in 10.0 mi South 10.4 mph 17.3 mph N/A   Scattered Clouds
3:38 AM 24.8 °F 13.4 °F 17.6 °F 74% 30.21 in 10.0 mi South 12.7 mph 17.3 mph N/A   Clear
3:58 AM 24.8 °F 13.4 °F 17.6 °F 74% 30.20 in 10.0 mi South 12.7 mph 18.4 mph N/A   Clear
4:18 AM 24.8 °F 13.4 °F 19.4 °F 80% 30.18 in 10.0 mi SSE 12.7 mph 18.4 mph N/A   Clear
4:38 AM 24.8 °F 14.6 °F 19.4 °F 80% 30.16 in 10.0 mi SSE 10.4 mph 20.7 mph N/A   Clear
4:58 AM 24.8 °F 14.0 °F 19.4 °F 80% 30.15 in 10.0 mi South 11.5 mph - N/A   Clear
5:18 AM 24.8 °F 14.6 °F 19.4 °F 80% 30.13 in 10.0 mi SSE 10.4 mph - N/A   Clear
5:38 AM 24.8 °F 14.0 °F 19.4 °F 80% 30.11 in 10.0 mi SSE 11.5 mph 18.4 mph N/A   Clear
5:58 AM 24.8 °F 13.4 °F 19.4 °F 80% 30.10 in 10.0 mi South 12.7 mph 16.1 mph N/A   Clear
6:18 AM 26.6 °F 15.7 °F 19.4 °F 74% 30.10 in 10.0 mi South 12.7 mph 18.4 mph N/A   Clear
6:38 AM 26.6 °F 16.2 °F 19.4 °F 74% 30.09 in 10.0 mi South 11.5 mph 18.4 mph N/A   Clear
6:58 AM 24.8 °F 14.6 °F 21.2 °F 86% 30.08 in 10.0 mi South 10.4 mph - N/A   Clear
7:18 AM 26.6 °F 16.8 °F 21.2 °F 80% 30.07 in 10.0 mi South 10.4 mph - N/A   Clear
7:38 AM 26.6 °F 16.2 °F 21.2 °F 80% 30.06 in 10.0 mi South 11.5 mph - N/A   Clear
7:58 AM 26.6 °F 16.8 °F 21.2 °F 80% 30.05 in 10.0 mi South 10.4 mph 16.1 mph N/A   Clear
8:17 AM 26.6 °F 17.5 °F 21.2 °F 80% 30.04 in 10.0 mi South 9.2 mph - N/A   Clear
8:38 AM 26.6 °F 17.5 °F 21.2 °F 80% 30.03 in 10.0 mi South 9.2 mph - N/A   Clear
8:58 AM 26.6 °F 16.8 °F 21.2 °F 80% 30.02 in 10.0 mi South 10.4 mph - N/A   Clear
9:18 AM 28.4 °F 19.1 °F 21.2 °F 74% 30.02 in 10.0 mi South 10.4 mph - N/A   Clear
9:38 AM 28.4 °F 19.7 °F 23.0 °F 80% 30.00 in 10.0 mi South 9.2 mph - N/A   Clear
9:58 AM 30.2 °F 21.9 °F 23.0 °F 75% 29.99 in 10.0 mi South 9.2 mph - N/A   Clear
10:18 AM 32.0 °F 22.5 °F 23.0 °F 69% 29.99 in 10.0 mi South 12.7 mph 17.3 mph N/A   Clear
10:38 AM 32.0 °F 23.0 °F 24.8 °F 75% 29.98 in 10.0 mi South 11.5 mph - N/A   Clear
10:58 AM 32.0 °F 23.0 °F 24.8 °F 75% 29.97 in 10.0 mi SSW 11.5 mph - N/A   Clear
11:18 AM 33.8 °F 24.8 °F 24.8 °F 70% 29.95 in 10.0 mi South 12.7 mph - N/A   Clear
11:38 AM 33.8 °F 23.9 °F 24.8 °F 70% 29.94 in 10.0 mi SSW 15.0 mph 20.7 mph N/A   Clear
11:58 AM 33.8 °F 24.3 °F 24.8 °F 70% 29.93 in 10.0 mi SSW 13.8 mph - N/A   Scattered Clouds
12:18 PM 35.6 °F 28.0 °F 26.6 °F 70% 29.91 in 10.0 mi SSW 10.4 mph 18.4 mph N/A   Scattered Clouds
12:38 PM 35.6 °F 27.1 °F 26.6 °F 70% 29.90 in 10.0 mi South 12.7 mph - N/A   Clear
12:58 PM 35.6 °F 28.0 °F 26.6 °F 70% 29.89 in 10.0 mi SSW 10.4 mph - N/A   Clear
1:18 PM 35.6 °F 26.6 °F 26.6 °F 70% 29.88 in 10.0 mi South 13.8 mph - N/A   Clear
1:37 PM 35.6 °F 27.5 °F 26.6 °F 70% 29.86 in 10.0 mi SSW 11.5 mph - N/A   Clear
1:58 PM 35.6 °F 28.0 °F 26.6 °F 70% 29.85 in 10.0 mi South 10.4 mph - N/A   Clear
2:18 PM 37.4 °F 30.3 °F 28.4 °F 70% 29.84 in 10.0 mi South 10.4 mph - N/A   Clear
2:38 PM 37.4 °F 31.4 °F 28.4 °F 70% 29.84 in 10.0 mi South 8.1 mph - N/A   Clear
2:58 PM 39.2 °F 34.2 °F 28.4 °F 65% 29.84 in 10.0 mi South 6.9 mph - N/A   Scattered Clouds
3:18 PM 39.2 °F 33.0 °F 30.2 °F 70% 29.84 in 10.0 mi SSW 9.2 mph - N/A   Mostly Cloudy
3:38 PM 39.2 °F 33.0 °F 30.2 °F 70% 29.83 in 10.0 mi South 9.2 mph - N/A   Overcast
3:58 PM 39.2 °F 32.5 °F 30.2 °F 70% 29.84 in 10.0 mi SSW 10.4 mph - N/A   Overcast
4:17 PM 39.2 °F 32.5 °F 30.2 °F 70% 29.84 in 10.0 mi South 10.4 mph - N/A   Overcast
4:38 PM 39.2 °F 32.5 °F 30.2 °F 70% 29.84 in 10.0 mi South 10.4 mph - N/A   Overcast
4:58 PM 39.2 °F 32.5 °F 30.2 °F 70% 29.83 in 10.0 mi South 10.4 mph - N/A   Overcast
5:18 PM 39.2 °F 32.0 °F 32.0 °F 75% 29.83 in 10.0 mi South 11.5 mph - N/A Rain Light Rain
5:38 PM 39.2 °F 33.6 °F 32.0 °F 75% 29.83 in 10.0 mi SSW 8.1 mph - N/A   Overcast
5:58 PM 39.2 °F 32.5 °F 32.0 °F 75% 29.83 in 10.0 mi South 10.4 mph - N/A   Overcast
6:18 PM 39.2 °F 33.6 °F 32.0 °F 75% 29.84 in 10.0 mi SSW 8.1 mph - N/A Rain Light Rain
6:38 PM 39.2 °F 33.6 °F 32.0 °F 75% 29.84 in 10.0 mi SSW 8.1 mph - N/A Rain Light Rain
6:58 PM 37.4 °F 32.1 °F 33.8 °F 87% 29.84 in 5.0 mi SSW 6.9 mph - N/A Rain Light Rain
7:18 PM 37.4 °F 32.1 °F 33.8 °F 87% 29.84 in 4.0 mi South 6.9 mph - N/A   Light Drizzle
7:37 PM 37.4 °F 32.1 °F 33.8 °F 87% 29.84 in 2.5 mi South 6.9 mph - N/A Rain Heavy Rain
7:58 PM 37.4 °F 32.1 °F 35.6 °F 93% 29.83 in 3.0 mi South 6.9 mph - N/A   Drizzle
8:18 PM 37.4 °F 32.1 °F 35.6 °F 93% 29.82 in 3.0 mi South 6.9 mph - N/A   Light Drizzle
8:38 PM 37.4 °F 32.1 °F 35.6 °F 93% 29.81 in 3.0 mi South 6.9 mph - N/A   Light Drizzle
8:58 PM 37.4 °F 32.1 °F 35.6 °F 93% 29.81 in 2.0 mi South 6.9 mph - N/A   Overcast
9:18 PM 37.4 °F 32.8 °F 35.6 °F 93% 29.81 in 2.0 mi South 5.8 mph - N/A   Overcast
9:38 PM 37.4 °F 32.1 °F 35.6 °F 93% 29.80 in 2.0 mi South 6.9 mph - N/A   Overcast
9:58 PM 37.4 °F 32.1 °F 35.6 °F 93% 29.80 in 1.8 mi South 6.9 mph - N/A   Overcast
10:18 PM 37.4 °F 32.1 °F 37.4 °F 100% 29.80 in 1.8 mi South 6.9 mph - N/A   Overcast
10:38 PM 37.4 °F 32.1 °F 37.4 °F 100% 29.79 in 1.5 mi South 6.9 mph - N/A   Overcast
10:58 PM 39.2 °F 34.2 °F 37.4 °F 93% 29.79 in 1.2 mi SSW 6.9 mph - N/A   Overcast
11:18 PM 39.2 °F 35.0 °F 37.4 °F 93% 29.79 in 0.8 mi SSW 5.8 mph - N/A   Overcast
11:38 PM 39.2 °F 35.9 °F 37.4 °F 93% 29.79 in 0.8 mi SSW 4.6 mph - N/A   Overcast
11:58 PM 39.2 °F 35.0 °F 39.2 °F 100% 29.78 in 0.8 mi South 5.8 mph - N/A   Overcast